FHV2 KLGA-KRSW

Flight info

Callsign FHV2
Flight time 2h 35m
Altitude 32000
Route WHITE Q409 CRPLR EARZZ Q131 WAALT Y289 BAHAA HIBAC SHFTY6
Aircraft A321/M-SDE3FGHIRWY/LB1

Departure

Time 2026-05-04 18:09
Airport LaGuardia Airport (KLGA)

Arrival

Time 2026-05-04 20:45
Airport Southwest Florida International Airport (KRSW)
Time Latitude Longitude Altitude Speed Heading
2026-05-04 17:51 40.77241 -73.86626 20 ft 0 kts 132°
2026-05-04 18:03 40.77243 -73.86628 29 ft 1 kts 132°
2026-05-04 18:03 40.77253 -73.86643 19 ft 2 kts 133°
2026-05-04 18:03 40.77264 -73.86660 21 ft 3 kts 107°
2026-05-04 18:03 40.77266 -73.86682 21 ft 3 kts 63°
2026-05-04 18:04 40.77255 -73.86702 22 ft 2 kts 44°
2026-05-04 18:04 40.77249 -73.86709 22 ft 1 kts 43°
2026-05-04 18:04 40.77248 -73.86710 23 ft 0 kts 43°
2026-05-04 18:06 40.77251 -73.86707 22 ft 1 kts 43°
2026-05-04 18:06 40.77267 -73.86687 21 ft 6 kts 43°
2026-05-04 18:06 40.77308 -73.86636 19 ft 9 kts 42°
2026-05-04 18:07 40.77360 -73.86580 19 ft 10 kts 39°
2026-05-04 18:07 40.77385 -73.86481 14 ft 16 kts 115°
2026-05-04 18:07 40.77327 -73.86359 12 ft 16 kts 123°
2026-05-04 18:07 40.77331 -73.86225 14 ft 15 kts 87°
2026-05-04 18:08 40.77285 -73.86107 13 ft 15 kts 122°
2026-05-04 18:08 40.77229 -73.85988 12 ft 16 kts 121°
2026-05-04 18:08 40.77170 -73.85866 13 ft 16 kts 122°
2026-05-04 18:08 40.77182 -73.85754 14 ft 13 kts 39°
2026-05-04 18:09 40.77559 -73.86453 14 ft 117 kts 302°
2026-05-04 18:09 40.78695 -73.88944 894 ft 168 kts 296°
2026-05-04 18:10 40.79283 -73.90260 1876 ft 165 kts 290°
2026-05-04 18:10 40.79505 -73.91775 2490 ft 174 kts 263°
2026-05-04 18:10 40.78983 -73.93267 2717 ft 193 kts 225°
2026-05-04 18:10 40.77744 -73.94146 2865 ft 214 kts 204°
2026-05-04 18:11 40.76283 -73.94901 3026 ft 237 kts 205°
2026-05-04 18:11 40.74705 -73.95708 3540 ft 247 kts 204°
2026-05-04 18:11 40.73085 -73.96534 4211 ft 251 kts 204°
2026-05-04 18:11 40.71472 -73.97358 4904 ft 254 kts 204°
2026-05-04 18:12 40.69791 -73.98222 5533 ft 257 kts 205°
2026-05-04 18:12 40.68103 -73.99092 6217 ft 263 kts 206°
2026-05-04 18:12 40.66414 -73.99961 6854 ft 266 kts 206°
2026-05-04 18:12 40.64675 -74.00856 7525 ft 270 kts 206°
2026-05-04 18:13 40.62914 -74.01768 8197 ft 273 kts 206°
2026-05-04 18:13 40.61137 -74.02689 8838 ft 276 kts 206°
2026-05-04 18:13 40.57518 -74.04561 10079 ft 283 kts 206°
2026-05-04 18:14 40.55645 -74.05530 10345 ft 299 kts 206°
2026-05-04 18:14 40.53653 -74.06565 10475 ft 318 kts 206°
2026-05-04 18:14 40.51540 -74.07658 10591 ft 335 kts 206°
2026-05-04 18:15 40.47775 -74.09596 11046 ft 354 kts 205°
2026-05-04 18:15 40.43144 -74.11964 12155 ft 360 kts 205°
2026-05-04 18:15 40.40802 -74.13158 12714 ft 362 kts 205°
2026-05-04 18:16 40.38450 -74.14360 13270 ft 364 kts 206°
2026-05-04 18:16 40.36079 -74.15572 13804 ft 367 kts 206°
2026-05-04 18:16 40.33691 -74.16794 14268 ft 370 kts 206°
2026-05-04 18:17 40.28849 -74.19264 15183 ft 376 kts 205°
2026-05-04 18:17 40.26400 -74.20514 15645 ft 379 kts 205°
2026-05-04 18:17 40.21453 -74.23044 16572 ft 385 kts 206°
2026-05-04 18:18 40.18940 -74.24327 17009 ft 388 kts 205°
2026-05-04 18:18 40.16412 -74.25615 17434 ft 392 kts 205°
2026-05-04 18:18 40.13870 -74.26910 17860 ft 394 kts 205°
2026-05-04 18:18 40.11298 -74.28217 18255 ft 398 kts 205°
2026-05-04 18:19 40.06102 -74.30856 18964 ft 403 kts 205°
2026-05-04 18:19 40.03481 -74.32184 19340 ft 406 kts 205°
2026-05-04 18:19 40.00855 -74.33552 19700 ft 407 kts 207°
2026-05-04 18:20 39.98264 -74.35055 20063 ft 408 kts 209°
2026-05-04 18:20 39.95693 -74.36659 20422 ft 410 kts 211°
2026-05-04 18:20 39.93125 -74.38314 20797 ft 413 kts 211°
2026-05-04 18:20 39.90548 -74.39984 21137 ft 415 kts 211°
2026-05-04 18:21 39.87948 -74.41655 21480 ft 418 kts 211°
2026-05-04 18:21 39.85320 -74.43317 21827 ft 421 kts 210°
2026-05-04 18:21 39.82673 -74.44968 22167 ft 423 kts 210°
2026-05-04 18:21 39.80006 -74.46622 22499 ft 426 kts 210°
2026-05-04 18:22 39.77317 -74.48280 22832 ft 429 kts 210°
2026-05-04 18:22 39.74613 -74.49938 23159 ft 432 kts 210°
2026-05-04 18:22 39.71890 -74.51614 23505 ft 434 kts 210°
2026-05-04 18:22 39.69152 -74.53299 23787 ft 436 kts 210°
2026-05-04 18:23 39.66403 -74.54993 24079 ft 438 kts 210°
2026-05-04 18:23 39.63642 -74.56694 24351 ft 440 kts 210°
2026-05-04 18:23 39.60865 -74.58404 24636 ft 442 kts 210°
2026-05-04 18:23 39.58080 -74.60118 24926 ft 444 kts 210°
2026-05-04 18:24 39.55284 -74.61838 25201 ft 446 kts 210°
2026-05-04 18:24 39.52512 -74.63542 25474 ft 448 kts 210°
2026-05-04 18:24 39.49655 -74.65294 25754 ft 450 kts 210°
2026-05-04 18:24 39.46856 -74.67006 26027 ft 451 kts 210°
2026-05-04 18:25 39.44011 -74.68746 26298 ft 453 kts 210°
2026-05-04 18:25 39.41116 -74.70515 26572 ft 455 kts 210°
2026-05-04 18:25 39.38241 -74.72269 26840 ft 457 kts 210°
2026-05-04 18:25 39.35364 -74.74026 27092 ft 459 kts 210°
2026-05-04 18:26 39.32498 -74.75775 27331 ft 460 kts 210°
2026-05-04 18:26 39.29595 -74.77545 27561 ft 462 kts 210°
2026-05-04 18:26 39.26683 -74.79319 27788 ft 464 kts 210°
2026-05-04 18:26 39.23759 -74.81099 28005 ft 466 kts 210°
2026-05-04 18:27 39.20829 -74.82882 28238 ft 467 kts 210°
2026-05-04 18:27 39.17887 -74.84670 28451 ft 468 kts 210°
2026-05-04 18:27 39.14940 -74.86458 28744 ft 467 kts 210°
2026-05-04 18:27 39.12001 -74.88236 29041 ft 467 kts 210°
2026-05-04 18:28 39.09064 -74.90010 29333 ft 466 kts 210°
2026-05-04 18:28 39.06128 -74.91782 29630 ft 465 kts 210°
2026-05-04 18:28 39.03200 -74.93548 29925 ft 465 kts 210°
2026-05-04 18:28 39.00275 -74.95312 30200 ft 464 kts 210°
2026-05-04 18:29 38.97353 -74.97078 30451 ft 463 kts 210°
2026-05-04 18:29 38.94437 -74.98838 30684 ft 463 kts 210°
2026-05-04 18:29 38.91528 -75.00594 30922 ft 462 kts 210°
2026-05-04 18:29 38.88622 -75.02347 31156 ft 461 kts 210°
2026-05-04 18:30 38.82821 -75.05836 31623 ft 459 kts 210°
2026-05-04 18:30 38.79930 -75.07568 31853 ft 459 kts 210°
2026-05-04 18:30 38.77040 -75.09297 31976 ft 459 kts 210°
2026-05-04 18:31 38.74135 -75.11033 32011 ft 463 kts 210°
2026-05-04 18:31 38.68246 -75.14556 31994 ft 470 kts 210°
2026-05-04 18:32 38.62306 -75.18101 32001 ft 472 kts 210°
2026-05-04 18:32 38.56362 -75.21646 31994 ft 472 kts 210°
2026-05-04 18:33 38.50452 -75.25162 31999 ft 472 kts 210°
2026-05-04 18:33 38.44500 -75.28698 32020 ft 472 kts 210°
2026-05-04 18:34 38.38540 -75.32224 32022 ft 472 kts 210°
2026-05-04 18:34 38.32540 -75.35775 32027 ft 472 kts 210°
2026-05-04 18:35 38.26615 -75.39270 32030 ft 472 kts 210°
2026-05-04 18:35 38.20614 -75.42801 32031 ft 472 kts 210°
2026-05-04 18:36 38.14662 -75.46310 32034 ft 471 kts 210°
2026-05-04 18:36 38.08749 -75.49798 32057 ft 471 kts 210°
2026-05-04 18:37 38.02806 -75.53286 32062 ft 470 kts 210°
2026-05-04 18:37 37.96862 -75.56756 32061 ft 470 kts 210°
2026-05-04 18:38 37.90922 -75.60222 32062 ft 470 kts 210°
2026-05-04 18:38 37.84991 -75.63668 32057 ft 468 kts 210°
2026-05-04 18:39 37.79076 -75.67104 32051 ft 467 kts 211°
2026-05-04 18:39 37.73181 -75.70536 32055 ft 466 kts 211°
2026-05-04 18:40 37.67302 -75.73958 32067 ft 465 kts 211°
2026-05-04 18:40 37.61426 -75.77363 32064 ft 464 kts 211°
2026-05-04 18:41 37.55553 -75.80748 32059 ft 464 kts 211°
2026-05-04 18:41 37.49691 -75.84125 32054 ft 463 kts 211°
2026-05-04 18:42 37.43845 -75.87502 32048 ft 462 kts 211°
2026-05-04 18:42 37.38007 -75.90856 32053 ft 461 kts 211°
2026-05-04 18:43 37.32178 -75.94196 32051 ft 460 kts 211°
2026-05-04 18:43 37.26364 -75.97525 32045 ft 459 kts 211°
2026-05-04 18:44 37.20559 -76.00836 32050 ft 458 kts 211°
2026-05-04 18:44 37.14776 -76.04149 32050 ft 457 kts 211°
2026-05-04 18:45 37.09000 -76.07454 32055 ft 456 kts 212°
2026-05-04 18:45 37.03231 -76.10732 32058 ft 455 kts 212°
2026-05-04 18:46 36.97474 -76.14000 32061 ft 454 kts 212°
2026-05-04 18:46 36.91729 -76.17259 32068 ft 452 kts 212°
2026-05-04 18:47 36.86004 -76.20499 32062 ft 451 kts 212°
2026-05-04 18:47 36.80290 -76.23730 32064 ft 450 kts 212°
2026-05-04 18:48 36.74593 -76.26951 32074 ft 449 kts 212°
2026-05-04 18:48 36.68909 -76.30157 32074 ft 448 kts 212°
2026-05-04 18:49 36.63229 -76.33357 32071 ft 447 kts 212°
2026-05-04 18:49 36.57562 -76.36540 32069 ft 446 kts 212°
2026-05-04 18:50 36.51904 -76.39712 32068 ft 445 kts 212°
2026-05-04 18:50 36.46257 -76.42869 32067 ft 445 kts 212°
2026-05-04 18:51 36.40612 -76.46023 32072 ft 444 kts 212°
2026-05-04 18:51 36.34977 -76.49168 32072 ft 444 kts 212°
2026-05-04 18:52 36.29352 -76.52305 32078 ft 443 kts 212°
2026-05-04 18:52 36.23736 -76.55419 32084 ft 441 kts 212°
2026-05-04 18:53 36.18131 -76.58535 32087 ft 441 kts 212°
2026-05-04 18:53 36.12529 -76.61656 32092 ft 442 kts 212°
2026-05-04 18:54 36.06912 -76.64762 32094 ft 442 kts 212°
2026-05-04 18:54 36.02246 -76.67333 32091 ft 442 kts 211°
2026-05-04 18:55 35.96635 -76.70431 32084 ft 442 kts 211°
2026-05-04 18:55 35.87311 -76.75569 32082 ft 442 kts 211°
2026-05-04 18:56 35.82609 -76.78155 32089 ft 441 kts 211°
2026-05-04 18:56 35.77037 -76.81213 32089 ft 441 kts 211°
2026-05-04 18:57 35.71430 -76.84283 32086 ft 441 kts 211°
2026-05-04 18:57 35.65819 -76.87346 32088 ft 441 kts 210°
2026-05-04 18:58 35.60210 -76.90414 32094 ft 441 kts 211°
2026-05-04 18:58 35.54591 -76.93491 32094 ft 441 kts 210°
2026-05-04 18:59 35.48980 -76.96555 32091 ft 441 kts 210°
2026-05-04 18:59 35.43363 -76.99604 32090 ft 442 kts 210°
2026-05-04 19:00 35.37735 -77.02659 32088 ft 442 kts 210°
2026-05-04 19:00 35.32151 -77.05686 32094 ft 442 kts 210°
2026-05-04 19:01 35.26528 -77.08732 32101 ft 442 kts 210°
2026-05-04 19:01 35.20898 -77.11785 32111 ft 442 kts 210°
2026-05-04 19:02 35.15266 -77.14830 32110 ft 443 kts 210°
2026-05-04 19:02 35.09622 -77.17868 32109 ft 443 kts 210°
2026-05-04 19:03 35.03981 -77.20894 32116 ft 443 kts 210°
2026-05-04 19:03 34.98340 -77.23922 32121 ft 443 kts 210°
2026-05-04 19:04 34.92698 -77.26950 32116 ft 443 kts 210°
2026-05-04 19:04 34.87060 -77.29986 32120 ft 443 kts 210°
2026-05-04 19:05 34.81424 -77.33006 32123 ft 443 kts 210°
2026-05-04 19:05 34.75771 -77.36014 32125 ft 444 kts 209°
2026-05-04 19:06 34.70107 -77.39031 32125 ft 444 kts 210°
2026-05-04 19:06 34.64452 -77.42052 32126 ft 444 kts 210°
2026-05-04 19:07 34.58790 -77.45073 32134 ft 444 kts 210°
2026-05-04 19:07 34.53121 -77.48079 32131 ft 445 kts 209°
2026-05-04 19:08 34.47453 -77.51079 32130 ft 445 kts 209°
2026-05-04 19:08 34.41782 -77.54080 32130 ft 445 kts 209°
2026-05-04 19:09 34.36112 -77.57082 32128 ft 445 kts 209°
2026-05-04 19:09 34.30436 -77.60081 32131 ft 445 kts 209°
2026-05-04 19:10 34.24761 -77.63078 32131 ft 445 kts 209°
2026-05-04 19:10 34.19085 -77.66060 32127 ft 445 kts 209°
2026-05-04 19:11 34.13412 -77.69031 32126 ft 445 kts 209°
2026-05-04 19:11 34.07741 -77.72011 32127 ft 445 kts 209°
2026-05-04 19:12 33.99221 -77.76475 32137 ft 445 kts 208°
2026-05-04 19:13 33.93537 -77.79445 32144 ft 445 kts 208°
2026-05-04 19:13 33.87855 -77.82408 32144 ft 445 kts 208°
2026-05-04 19:14 33.82180 -77.85371 32145 ft 445 kts 208°
2026-05-04 19:14 33.76330 -77.87905 32139 ft 450 kts 201°
2026-05-04 19:15 33.70289 -77.89951 32138 ft 450 kts 201°
2026-05-04 19:15 33.64262 -77.91999 32135 ft 450 kts 201°
2026-05-04 19:16 33.58228 -77.94049 32139 ft 451 kts 201°
2026-05-04 19:16 33.52213 -77.96076 32138 ft 451 kts 201°
2026-05-04 19:17 33.46167 -77.98118 32139 ft 452 kts 201°
2026-05-04 19:17 33.40115 -78.00165 32142 ft 452 kts 201°
2026-05-04 19:18 33.34066 -78.02206 32146 ft 452 kts 201°
2026-05-04 19:18 33.28014 -78.04247 32143 ft 452 kts 201°
2026-05-04 19:19 33.21964 -78.06274 32152 ft 452 kts 201°
2026-05-04 19:19 33.15911 -78.08301 32145 ft 452 kts 201°
2026-05-04 19:20 33.09858 -78.10334 32142 ft 452 kts 201°
2026-05-04 19:20 33.03799 -78.12368 32152 ft 452 kts 201°
2026-05-04 19:21 32.97742 -78.14399 32149 ft 452 kts 201°
2026-05-04 19:21 32.91678 -78.16420 32150 ft 453 kts 201°
2026-05-04 19:22 32.85607 -78.18436 32155 ft 453 kts 201°
2026-05-04 19:22 32.79541 -78.20451 32153 ft 453 kts 201°
2026-05-04 19:23 32.73468 -78.22459 32153 ft 453 kts 201°
2026-05-04 19:23 32.67398 -78.24479 32154 ft 453 kts 201°
2026-05-04 19:24 32.61289 -78.26500 32153 ft 453 kts 201°
2026-05-04 19:24 32.55218 -78.28508 32155 ft 453 kts 201°
2026-05-04 19:25 32.49150 -78.30517 32153 ft 453 kts 202°
2026-05-04 19:25 32.43079 -78.32516 32156 ft 453 kts 202°
2026-05-04 19:26 32.37044 -78.34497 32159 ft 453 kts 202°
2026-05-04 19:26 32.30984 -78.36486 32153 ft 452 kts 202°
2026-05-04 19:27 32.24923 -78.38491 32157 ft 452 kts 202°
2026-05-04 19:27 32.18870 -78.40482 32147 ft 452 kts 202°
2026-05-04 19:28 32.12813 -78.42464 32147 ft 452 kts 202°
2026-05-04 19:28 32.06744 -78.44448 32142 ft 453 kts 202°
2026-05-04 19:29 32.00663 -78.46435 32144 ft 453 kts 202°
2026-05-04 19:29 31.94589 -78.48409 32152 ft 453 kts 202°
2026-05-04 19:30 31.88513 -78.50395 32148 ft 453 kts 202°
2026-05-04 19:30 31.82440 -78.52373 32145 ft 453 kts 202°
2026-05-04 19:31 31.76359 -78.54351 32142 ft 453 kts 202°
2026-05-04 19:31 31.70273 -78.56315 32151 ft 453 kts 202°
2026-05-04 19:32 31.64193 -78.58281 32147 ft 453 kts 202°
2026-05-04 19:32 31.58123 -78.60246 32138 ft 452 kts 203°
2026-05-04 19:33 31.52066 -78.62230 32138 ft 452 kts 204°
2026-05-04 19:33 31.46035 -78.64296 32140 ft 451 kts 204°
2026-05-04 19:34 31.40017 -78.66380 32141 ft 451 kts 204°
2026-05-04 19:34 31.34035 -78.68436 32144 ft 451 kts 204°
2026-05-04 19:35 31.28017 -78.70494 32142 ft 451 kts 204°
2026-05-04 19:35 31.21991 -78.72556 32140 ft 451 kts 204°
2026-05-04 19:36 31.15960 -78.74606 32144 ft 451 kts 204°
2026-05-04 19:36 31.09928 -78.76652 32143 ft 452 kts 204°
2026-05-04 19:37 31.03888 -78.78708 32139 ft 452 kts 204°
2026-05-04 19:37 30.97843 -78.80757 32145 ft 452 kts 204°
2026-05-04 19:38 30.91802 -78.82792 32142 ft 452 kts 204°
2026-05-04 19:38 30.86773 -78.84490 32146 ft 452 kts 204°
2026-05-04 19:39 30.80723 -78.86533 32143 ft 452 kts 204°
2026-05-04 19:39 30.74684 -78.88583 32137 ft 452 kts 204°
2026-05-04 19:40 30.68641 -78.90628 32132 ft 452 kts 204°
2026-05-04 19:40 30.62594 -78.92659 32129 ft 453 kts 204°
2026-05-04 19:41 30.56542 -78.94693 32130 ft 452 kts 204°
2026-05-04 19:41 30.50492 -78.96731 32125 ft 453 kts 204°
2026-05-04 19:42 30.44441 -78.98753 32130 ft 453 kts 204°
2026-05-04 19:42 30.38451 -79.00940 32130 ft 449 kts 207°
2026-05-04 19:43 30.32640 -79.03535 32131 ft 447 kts 210°
2026-05-04 19:43 30.26860 -79.06203 32131 ft 448 kts 209°
2026-05-04 19:44 30.21041 -79.08781 32130 ft 448 kts 208°
2026-05-04 19:44 30.15197 -79.11304 32129 ft 448 kts 208°
2026-05-04 19:45 30.09358 -79.13826 32126 ft 448 kts 208°
2026-05-04 19:45 30.03521 -79.16363 32122 ft 448 kts 208°
2026-05-04 19:46 29.97683 -79.18906 32125 ft 449 kts 208°
2026-05-04 19:46 29.91832 -79.21440 32129 ft 449 kts 208°
2026-05-04 19:47 29.85974 -79.23967 32119 ft 449 kts 208°
2026-05-04 19:47 29.80164 -79.26475 32111 ft 449 kts 208°
2026-05-04 19:48 29.74314 -79.28999 32118 ft 449 kts 208°
2026-05-04 19:48 29.68466 -79.31520 32115 ft 449 kts 208°
2026-05-04 19:49 29.62613 -79.34044 32119 ft 449 kts 208°
2026-05-04 19:49 29.56754 -79.36563 32123 ft 449 kts 208°
2026-05-04 19:50 29.50897 -79.39072 32118 ft 449 kts 208°
2026-05-04 19:50 29.45054 -79.41575 32114 ft 448 kts 208°
2026-05-04 19:51 29.39210 -79.44082 32112 ft 448 kts 208°
2026-05-04 19:51 29.33366 -79.46582 32111 ft 448 kts 208°
2026-05-04 19:52 29.27532 -79.49074 32107 ft 447 kts 208°
2026-05-04 19:52 29.21726 -79.51553 32108 ft 448 kts 208°
2026-05-04 19:53 29.15890 -79.54042 32110 ft 448 kts 208°
2026-05-04 19:53 29.10050 -79.56526 32104 ft 448 kts 208°
2026-05-04 19:54 29.04263 -79.59125 32104 ft 445 kts 210°
2026-05-04 19:54 28.98567 -79.61890 32102 ft 444 kts 211°
2026-05-04 19:55 28.92878 -79.64658 32106 ft 444 kts 210°
2026-05-04 19:55 28.87247 -79.67509 32100 ft 437 kts 217°
2026-05-04 19:56 28.82695 -79.71836 32096 ft 420 kts 235°
2026-05-04 19:56 28.79269 -79.77177 32090 ft 418 kts 238°
2026-05-04 19:57 28.75874 -79.82555 32093 ft 418 kts 238°
2026-05-04 19:57 28.72474 -79.87930 32096 ft 418 kts 238°
2026-05-04 19:58 28.69067 -79.93304 32097 ft 418 kts 238°
2026-05-04 19:58 28.65865 -79.98805 32102 ft 416 kts 243°
2026-05-04 19:59 28.62919 -80.04477 32095 ft 416 kts 243°
2026-05-04 19:59 28.59969 -80.10154 32095 ft 417 kts 243°
2026-05-04 20:00 28.57008 -80.15824 32097 ft 417 kts 243°
2026-05-04 20:00 28.54037 -80.21490 32089 ft 416 kts 243°
2026-05-04 20:00 28.52561 -80.24307 31946 ft 409 kts 243°
2026-05-04 20:01 28.51131 -80.27032 31795 ft 394 kts 243°
2026-05-04 20:01 28.49741 -80.29686 31323 ft 389 kts 243°
2026-05-04 20:01 28.48553 -80.32417 30746 ft 384 kts 249°
2026-05-04 20:01 28.47461 -80.35194 30010 ft 386 kts 249°
2026-05-04 20:02 28.46355 -80.37984 29086 ft 389 kts 248°
2026-05-04 20:02 28.45235 -80.40798 28149 ft 393 kts 248°
2026-05-04 20:02 28.44119 -80.43588 27488 ft 391 kts 248°
2026-05-04 20:02 28.42996 -80.46393 26864 ft 389 kts 248°
2026-05-04 20:03 28.41864 -80.49217 26227 ft 386 kts 248°
2026-05-04 20:03 28.40757 -80.51986 25620 ft 384 kts 248°
2026-05-04 20:03 28.39673 -80.54706 25028 ft 382 kts 248°
2026-05-04 20:03 28.38578 -80.57446 24417 ft 380 kts 248°
2026-05-04 20:04 28.37487 -80.60171 23834 ft 378 kts 247°
2026-05-04 20:04 28.36400 -80.62881 23179 ft 376 kts 247°
2026-05-04 20:04 28.35320 -80.65576 22532 ft 374 kts 247°
2026-05-04 20:04 28.34236 -80.68279 22210 ft 372 kts 247°
2026-05-04 20:05 28.33175 -80.70931 21950 ft 374 kts 247°
2026-05-04 20:05 28.32086 -80.73654 21696 ft 374 kts 247°
2026-05-04 20:05 28.31012 -80.76337 21449 ft 373 kts 247°
2026-05-04 20:05 28.29938 -80.79010 21203 ft 372 kts 247°
2026-05-04 20:06 28.28862 -80.81678 20959 ft 372 kts 247°
2026-05-04 20:06 28.27787 -80.84343 20706 ft 371 kts 247°
2026-05-04 20:06 28.26716 -80.87003 20471 ft 370 kts 247°
2026-05-04 20:06 28.25646 -80.89658 20233 ft 370 kts 247°
2026-05-04 20:07 28.24576 -80.92308 20000 ft 369 kts 247°
2026-05-04 20:07 28.23512 -80.94943 19966 ft 367 kts 247°
2026-05-04 20:07 28.22443 -80.97586 20069 ft 369 kts 247°
2026-05-04 20:07 28.21371 -81.00234 20083 ft 370 kts 247°
2026-05-04 20:08 28.20307 -81.02855 20083 ft 369 kts 247°
2026-05-04 20:08 28.19344 -81.05227 20079 ft 369 kts 247°
2026-05-04 20:08 28.18267 -81.07871 20217 ft 364 kts 247°
2026-05-04 20:08 28.17272 -81.10473 20474 ft 356 kts 249°
2026-05-04 20:09 28.16331 -81.13073 20420 ft 359 kts 249°
2026-05-04 20:09 28.15394 -81.15735 20111 ft 369 kts 250°
2026-05-04 20:09 28.14447 -81.18474 19811 ft 377 kts 250°
2026-05-04 20:09 28.13536 -81.21268 19727 ft 378 kts 251°
2026-05-04 20:10 28.12657 -81.24057 19766 ft 372 kts 251°
2026-05-04 20:10 28.11949 -81.26329 19463 ft 380 kts 252°
2026-05-04 20:10 28.11105 -81.29158 19395 ft 380 kts 253°
2026-05-04 20:10 28.10330 -81.32032 19075 ft 387 kts 255°
2026-05-04 20:11 28.09614 -81.34986 18969 ft 388 kts 256°
2026-05-04 20:11 28.08737 -81.37871 18880 ft 390 kts 245°
2026-05-04 20:11 28.07152 -81.40400 18577 ft 401 kts 226°
2026-05-04 20:11 28.04832 -81.42163 18684 ft 402 kts 208°
2026-05-04 20:12 28.02183 -81.43086 18966 ft 398 kts 197°
2026-05-04 20:12 27.99579 -81.43542 18754 ft 362 kts 191°
2026-05-04 20:12 27.97127 -81.43733 18619 ft 345 kts 187°
2026-05-04 20:12 27.94808 -81.43727 18725 ft 322 kts 184°
2026-05-04 20:13 27.92599 -81.43563 18340 ft 318 kts 180°
2026-05-04 20:13 27.90350 -81.43267 17261 ft 334 kts 177°
2026-05-04 20:13 27.87987 -81.42858 16148 ft 350 kts 174°
2026-05-04 20:13 27.85591 -81.42356 15442 ft 350 kts 172°
2026-05-04 20:14 27.83193 -81.41721 13937 ft 363 kts 166°
2026-05-04 20:14 27.80738 -81.40849 11822 ft 371 kts 162°
2026-05-04 20:14 27.78254 -81.39801 9473 ft 401 kts 162°
2026-05-04 20:14 27.75684 -81.38871 9163 ft 376 kts 170°
2026-05-04 20:15 27.73208 -81.38456 9118 ft 346 kts 177°
2026-05-04 20:15 27.70865 -81.38206 8671 ft 332 kts 177°
2026-05-04 20:15 27.68602 -81.37979 8162 ft 321 kts 176°
2026-05-04 20:15 27.66419 -81.37630 7630 ft 311 kts 172°
2026-05-04 20:16 27.64330 -81.37199 7155 ft 293 kts 171°
2026-05-04 20:16 27.62456 -81.36768 7089 ft 260 kts 168°
2026-05-04 20:16 27.60828 -81.35835 6153 ft 272 kts 141°
2026-05-04 20:16 27.59482 -81.34305 5485 ft 277 kts 123°
2026-05-04 20:17 27.58746 -81.32306 4910 ft 278 kts 101°
2026-05-04 20:17 27.58729 -81.30139 4342 ft 277 kts 79°
2026-05-04 20:17 27.59426 -81.28135 3813 ft 274 kts 58°
2026-05-04 20:17 27.60733 -81.26612 3351 ft 270 kts 38°
2026-05-04 20:18 27.62284 -81.25485 2943 ft 259 kts 34°
2026-05-04 20:18 27.63737 -81.24457 2875 ft 249 kts 40°
2026-05-04 20:18 27.64842 -81.22888 3167 ft 260 kts 68°
2026-05-04 20:18 27.65172 -81.20931 3794 ft 254 kts 92°
2026-05-04 20:19 27.64716 -81.19001 3993 ft 258 kts 117°
2026-05-04 20:19 27.63592 -81.17410 4040 ft 261 kts 131°
2026-05-04 20:19 27.62310 -81.15952 4046 ft 261 kts 133°
2026-05-04 20:19 27.61025 -81.14513 4046 ft 260 kts 133°
2026-05-04 20:20 27.59736 -81.13065 4051 ft 263 kts 133°
2026-05-04 20:20 27.58265 -81.11872 4053 ft 272 kts 153°
2026-05-04 20:20 27.56408 -81.11459 4047 ft 272 kts 180°
2026-05-04 20:20 27.54592 -81.12020 4060 ft 276 kts 206°
2026-05-04 20:21 27.52946 -81.13157 4063 ft 278 kts 211°
2026-05-04 20:21 27.51298 -81.14331 4661 ft 280 kts 211°
2026-05-04 20:21 27.48058 -81.16641 7299 ft 274 kts 213°
2026-05-04 20:22 27.46992 -81.17398 8105 ft 273 kts 214°
2026-05-04 20:22 27.45380 -81.18541 9232 ft 277 kts 214°
2026-05-04 20:22 27.43200 -81.20075 9858 ft 278 kts 214°
2026-05-04 20:22 27.42090 -81.20852 9986 ft 278 kts 214°
2026-05-04 20:23 27.40443 -81.22004 10052 ft 278 kts 214°
2026-05-04 20:23 27.38823 -81.23140 10057 ft 278 kts 214°
2026-05-04 20:23 27.37165 -81.24307 10059 ft 278 kts 214°
2026-05-04 20:23 27.35549 -81.25442 10059 ft 277 kts 214°
2026-05-04 20:24 27.33912 -81.26591 10060 ft 277 kts 214°
2026-05-04 20:24 27.32273 -81.27738 10060 ft 278 kts 214°
2026-05-04 20:24 27.30614 -81.28902 10053 ft 278 kts 214°
2026-05-04 20:24 27.28973 -81.30056 10057 ft 278 kts 214°
2026-05-04 20:25 27.27356 -81.31191 10054 ft 278 kts 214°
2026-05-04 20:25 27.25716 -81.32341 10055 ft 278 kts 214°
2026-05-04 20:25 27.24074 -81.33494 10059 ft 278 kts 214°
2026-05-04 20:25 27.22427 -81.34645 10060 ft 278 kts 214°
2026-05-04 20:26 27.20782 -81.35794 10057 ft 279 kts 214°
2026-05-04 20:26 27.19137 -81.36945 10059 ft 278 kts 214°
2026-05-04 20:26 27.17494 -81.38095 10060 ft 278 kts 214°
2026-05-04 20:26 27.15850 -81.39247 10054 ft 278 kts 214°
2026-05-04 20:27 27.14209 -81.40395 10057 ft 278 kts 214°
2026-05-04 20:27 27.12568 -81.41544 10054 ft 278 kts 214°
2026-05-04 20:27 27.10930 -81.42690 10053 ft 278 kts 214°
2026-05-04 20:27 27.09290 -81.43836 10054 ft 278 kts 214°
2026-05-04 20:28 27.07645 -81.44980 10049 ft 278 kts 214°
2026-05-04 20:28 27.06003 -81.46121 10051 ft 278 kts 214°
2026-05-04 20:28 27.04348 -81.47255 10052 ft 278 kts 211°
2026-05-04 20:28 27.02497 -81.47909 10047 ft 284 kts 188°
2026-05-04 20:29 27.00523 -81.47650 10047 ft 292 kts 164°
2026-05-04 20:29 26.98641 -81.46772 10041 ft 293 kts 160°
2026-05-04 20:29 26.96763 -81.45859 10042 ft 294 kts 160°
2026-05-04 20:29 26.94908 -81.44959 10043 ft 294 kts 160°
2026-05-04 20:30 26.93025 -81.44047 10044 ft 295 kts 161°
2026-05-04 20:30 26.91141 -81.43136 10046 ft 295 kts 161°
2026-05-04 20:30 26.89252 -81.42227 10046 ft 295 kts 161°
2026-05-04 20:30 26.87365 -81.41323 10048 ft 295 kts 161°
2026-05-04 20:31 26.85476 -81.40420 10044 ft 295 kts 161°
2026-05-04 20:31 26.83569 -81.39575 10042 ft 293 kts 168°
2026-05-04 20:31 26.81583 -81.39205 10050 ft 288 kts 182°
2026-05-04 20:31 26.79593 -81.39252 10053 ft 286 kts 186°
2026-05-04 20:32 26.77600 -81.39323 10049 ft 287 kts 186°
2026-05-04 20:32 26.75602 -81.39392 10050 ft 287 kts 185°
2026-05-04 20:32 26.73613 -81.39457 9969 ft 284 kts 185°
2026-05-04 20:32 26.71649 -81.39519 9565 ft 282 kts 185°
2026-05-04 20:33 26.69703 -81.39676 9126 ft 279 kts 193°
2026-05-04 20:33 26.67874 -81.40252 8725 ft 275 kts 205°
2026-05-04 20:33 26.66208 -81.41252 8326 ft 271 kts 217°
2026-05-04 20:33 26.64779 -81.42611 7928 ft 269 kts 227°
2026-05-04 20:34 26.63619 -81.44246 7525 ft 268 kts 235°
2026-05-04 20:34 26.62528 -81.45935 7137 ft 268 kts 234°
2026-05-04 20:34 26.61435 -81.47617 6716 ft 268 kts 234°
2026-05-04 20:34 26.60333 -81.49305 6259 ft 270 kts 234°
2026-05-04 20:35 26.59225 -81.51005 5818 ft 271 kts 234°
2026-05-04 20:35 26.58117 -81.52709 5405 ft 271 kts 234°
2026-05-04 20:35 26.57007 -81.54412 4991 ft 271 kts 234°
2026-05-04 20:35 26.55899 -81.56114 4559 ft 272 kts 233°
2026-05-04 20:36 26.54784 -81.57825 4132 ft 274 kts 233°
2026-05-04 20:36 26.53663 -81.59546 4009 ft 277 kts 234°
2026-05-04 20:36 26.52554 -81.61255 4010 ft 265 kts 233°
2026-05-04 20:36 26.51502 -81.62877 4013 ft 250 kts 233°
2026-05-04 20:37 26.50510 -81.64405 4009 ft 238 kts 233°
2026-05-04 20:37 26.49540 -81.65897 4014 ft 238 kts 233°
2026-05-04 20:37 26.48575 -81.67387 4008 ft 236 kts 233°
2026-05-04 20:37 26.47611 -81.68872 4008 ft 236 kts 233°
2026-05-04 20:38 26.46655 -81.70343 4003 ft 227 kts 234°
2026-05-04 20:38 26.45761 -81.71720 4017 ft 215 kts 234°
2026-05-04 20:38 26.44893 -81.73053 4033 ft 214 kts 233°
2026-05-04 20:38 26.44015 -81.74397 4035 ft 213 kts 233°
2026-05-04 20:39 26.43142 -81.75735 4030 ft 213 kts 232°
2026-05-04 20:39 26.42264 -81.77072 4016 ft 214 kts 233°
2026-05-04 20:39 26.41386 -81.78415 4029 ft 214 kts 232°
2026-05-04 20:39 26.40513 -81.79747 4035 ft 214 kts 234°
2026-05-04 20:40 26.39862 -81.81239 3789 ft 212 kts 255°
2026-05-04 20:40 26.39736 -81.82838 3545 ft 203 kts 276°
2026-05-04 20:40 26.40072 -81.84322 3353 ft 193 kts 296°
2026-05-04 20:40 26.40774 -81.85565 3151 ft 187 kts 315°
2026-05-04 20:41 26.41756 -81.86484 2955 ft 184 kts 332°
2026-05-04 20:41 26.42926 -81.87023 2728 ft 180 kts 349°
2026-05-04 20:41 26.44131 -81.87144 2517 ft 163 kts
2026-05-04 20:41 26.45176 -81.86926 2357 ft 148 kts 22°
2026-05-04 20:42 26.46102 -81.86454 2194 ft 144 kts 35°
2026-05-04 20:42 26.46873 -81.85776 2033 ft 141 kts 48°
2026-05-04 20:42 26.47480 -81.84935 1870 ft 138 kts 56°
2026-05-04 20:42 26.48041 -81.84074 1622 ft 137 kts 56°
2026-05-04 20:43 26.48604 -81.83211 1411 ft 137 kts 56°
2026-05-04 20:43 26.49161 -81.82356 1225 ft 136 kts 56°
2026-05-04 20:43 26.49715 -81.81507 1049 ft 134 kts 53°
2026-05-04 20:43 26.50266 -81.80662 859 ft 134 kts 56°
2026-05-04 20:44 26.50813 -81.79821 679 ft 133 kts 58°
2026-05-04 20:44 26.51368 -81.78985 532 ft 134 kts 60°
2026-05-04 20:44 26.51916 -81.78144 365 ft 132 kts 55°
2026-05-04 20:44 26.52456 -81.77304 173 ft 134 kts 59°
2026-05-04 20:45 26.53000 -81.76471 49 ft 128 kts 58°
2026-05-04 20:45 26.53426 -81.75807 44 ft 68 kts 54°
2026-05-04 20:45 26.53638 -81.75477 43 ft 44 kts 54°
2026-05-04 20:45 26.53779 -81.75237 43 ft 25 kts 71°
2026-05-04 20:46 26.53719 -81.75165 44 ft 16 kts 212°
2026-05-04 20:46 26.53642 -81.75263 43 ft 17 kts 233°
2026-05-04 20:46 26.53561 -81.75353 44 ft 16 kts 182°
2026-05-04 20:46 26.53446 -81.75274 44 ft 23 kts 144°
2026-05-04 20:47 26.53313 -81.75168 44 ft 24 kts 144°
2026-05-04 20:47 26.53175 -81.75057 44 ft 23 kts 145°
2026-05-04 20:47 26.53073 -81.75106 41 ft 17 kts 234°
2026-05-04 20:47 26.52997 -81.75222 44 ft 20 kts 233°
2026-05-04 20:48 26.52922 -81.75337 44 ft 14 kts 234°
2026-05-04 20:48 26.52855 -81.75350 44 ft 6 kts 150°
2026-05-04 20:48 26.52840 -81.75339 44 ft 0 kts 146°
2026-05-04 20:49 26.52839 -81.75338 44 ft 0 kts 146°